User: anonymous   Login
Location: Summit Observatory
(39.5293°N, 75.7290°W)
Time: 08:12:56
(UTC-04:00)
Language:

Gurwin Techsat 1B - Orbit

View from above orbital plane
View from above orbital plane
View from above satellite
View from above satellite

Ground track
Ground track

The orbit data is extracted from the following two-line orbital elements,

1 25397U 98043D   16240.97137388 -.00000012  00000-0  13697-4 0  9993
2 25397  98.5715 184.0677 0002264 110.7730 249.3692 14.23600795942073
Epoch (UTC): 27 August 2016 23:18:46
Eccentricity: 0.0002264
inclination: 98.5715°
perigee height: 811 km
apogee height: 815 km
right ascension of ascending node: 184.0677°
argument of perigee: 110.7730°
revolutions per day: 14.23600795
mean anomaly at epoch: 249.3692°
orbit number at epoch: 94207

The dashed part of the orbit path shows where the satellite is in the earth's shadow,  

DLR